,,PA_Meas_PMT16A,,PR_Meas_QMR101_102,,RH_Meas_QMH101,,SR_Meas_QMS101,,TA_Meas_QMH101,,GenWind,,GenWind,
time,status,PA,status,PR,status,RH,status,SR,status,TA,status,DirAvg,status,SpdAvg,
2011-08-04, 00:00:05,VALID,918.269,VALID,0,VALID,95.7882,VALID,0,VALID,19.7613,VALID,148,VALID,0.88125,
2011-08-04, 00:01:05,VALID,918.288,VALID,0,VALID,95.8263,VALID,0,VALID,19.7613,VALID,148,VALID,1.03086,
2011-08-04, 00:02:05,VALID,918.305,VALID,0,VALID,95.8568,VALID,0,VALID,19.7418,VALID,148,VALID,0.760547,
2011-08-04, 00:03:05,VALID,918.326,VALID,0,VALID,95.8492,VALID,0,VALID,19.7013,VALID,148,VALID,0.873047,
2011-08-04, 00:04:05,VALID,918.374,VALID,0,VALID,95.8568,VALID,0,VALID,19.6833,VALID,148,VALID,0.537109,
2011-08-04, 00:05:05,VALID,918.403,VALID,0,VALID,95.9026,VALID,0,VALID,19.6833,VALID,119,VALID,0.733203,
2011-08-04, 00:06:05,VALID,918.431,VALID,0,VALID,95.9026,VALID,0,VALID,19.6428,VALID,119,VALID,0.763281,
2011-08-04, 00:07:05,VALID,918.466,VALID,0,VALID,95.9254,VALID,0,VALID,19.6833,VALID,119,VALID,1.17383,
2011-08-04, 00:08:05,VALID,918.507,VALID,0,VALID,95.9407,VALID,0,VALID,19.6623,VALID,119,VALID,0.787109,
2011-08-04, 00:09:05,VALID,918.491,VALID,0,VALID,95.9788,VALID,0,VALID,19.6833,VALID,119,VALID,0.569531,
2011-08-04, 00:10:05,VALID,918.507,VALID,0,VALID,95.9636,VALID,0,VALID,19.6623,VALID,119,VALID,0.466406,
2011-08-04, 00:11:05,VALID,918.477,VALID,0,VALID,95.9712,VALID,0,VALID,19.6833,VALID,119,VALID,0.498437,
2011-08-04, 00:12:05,VALID,918.481,VALID,0,VALID,95.9483,VALID,0,VALID,19.6833,VALID,119,VALID,0.476563,
2011-08-04, 00:13:05,VALID,918.483,VALID,0,VALID,95.9864,VALID,0,VALID,19.7028,VALID,119,VALID,0.579297,
2011-08-04, 00:14:05,VALID,918.478,VALID,0,VALID,96.0017,VALID,0,VALID,19.7223,VALID,119,VALID,0.651953,
2011-08-04, 00:15:05,VALID,918.445,VALID,0,VALID,96.0398,VALID,0,VALID,19.7208,VALID,119,VALID,0.366797,
2011-08-04, 00:16:05,VALID,918.456,VALID,0,VALID,96.0398,VALID,0,VALID,19.7418,VALID,119,VALID,0.337891,
2011-08-04, 00:17:05,VALID,918.425,VALID,0,VALID,96.055,VALID,0,VALID,19.7808,VALID,119,VALID,0.210938,
2011-08-04, 00:18:05,VALID,918.378,VALID,0,VALID,96.055,VALID,0,VALID,19.7808,VALID,119,VALID,0.0457031,
2011-08-04, 00:19:05,VALID,918.369,VALID,0,VALID,96.0398,VALID,0,VALID,19.7808,VALID,119,VALID,0,
2011-08-04, 00:20:05,VALID,918.354,VALID,0,VALID,96.0855,VALID,0,VALID,19.8198,VALID,119,VALID,0.492578,
2011-08-04, 00:21:05,VALID,918.334,VALID,0,VALID,96.0322,VALID,0,VALID,19.8003,VALID,119,VALID,0.579297,
2011-08-04, 00:22:05,VALID,918.325,VALID,0,VALID,96.0093,VALID,0,VALID,19.7808,VALID,119,VALID,0.669922,
2011-08-04, 00:23:05,VALID,918.329,VALID,0,VALID,95.9788,VALID,0,VALID,19.7223,VALID,119,VALID,0.747266,
2011-08-04, 00:24:05,VALID,918.35,VALID,0,VALID,96.0093,VALID,0,VALID,19.7223,VALID,119,VALID,0.851563,
2011-08-04, 00:25:05,VALID,918.341,VALID,0,VALID,96.0169,VALID,0,VALID,19.7028,VALID,119,VALID,0.755859,
2011-08-04, 00:26:05,VALID,918.345,VALID,0,VALID,96.055,VALID,0,VALID,19.7223,VALID,119,VALID,0.377344,
2011-08-04, 00:27:05,VALID,918.312,VALID,0,VALID,96.0855,VALID,0,VALID,19.7028,VALID,119,VALID,0.0886719,
2011-08-04, 00:28:05,VALID,918.322,VALID,0,VALID,96.116,VALID,0,VALID,19.7208,VALID,119,VALID,0.231641,
2011-08-04, 00:29:05,VALID,918.272,VALID,0,VALID,96.1541,VALID,0,VALID,19.7418,VALID,119,VALID,0.183203,
2011-08-04, 00:30:05,VALID,918.239,VALID,0,VALID,96.1618,VALID,0,VALID,19.7403,VALID,119,VALID,0,
2011-08-04, 00:31:05,VALID,918.232,VALID,0,VALID,96.177,VALID,0,VALID,19.7613,VALID,119,VALID,0.00664063,
2011-08-04, 00:32:05,VALID,918.218,VALID,0,VALID,96.1694,VALID,0,VALID,19.7613,VALID,119,VALID,0.117578,
2011-08-04, 00:33:05,VALID,918.177,VALID,0,VALID,96.1389,VALID,0,VALID,19.7418,VALID,119,VALID,0.424219,
2011-08-04, 00:34:05,VALID,918.189,VALID,0,VALID,96.116,VALID,0,VALID,19.7223,VALID,119,VALID,0.760938,
2011-08-04, 00:35:05,VALID,918.179,VALID,0,VALID,96.1541,VALID,0,VALID,19.7403,VALID,119,VALID,0.649609,
2011-08-04, 00:36:05,VALID,918.201,VALID,0,VALID,96.1694,VALID,0,VALID,19.8003,VALID,119,VALID,0.4625,
2011-08-04, 00:37:05,VALID,918.203,VALID,0,VALID,96.055,VALID,0,VALID,19.7598,VALID,119,VALID,0.255859,
2011-08-04, 00:38:05,VALID,918.217,VALID,0,VALID,96.0017,VALID,0,VALID,19.7613,VALID,119,VALID,0.316797,
2011-08-04, 00:39:05,VALID,918.224,VALID,0,VALID,96.0017,VALID,0,VALID,19.7613,VALID,119,VALID,0.54375,
2011-08-04, 00:40:05,VALID,918.234,VALID,0,VALID,95.9636,VALID,0,VALID,19.7808,VALID,119,VALID,0.685156,
2011-08-04, 00:41:05,VALID,918.214,VALID,0,VALID,95.895,VALID,0,VALID,19.8393,VALID,119,VALID,0.596094,
2011-08-04, 00:42:05,VALID,918.199,VALID,0,VALID,95.7577,VALID,0,VALID,19.8198,VALID,119,VALID,0.676172,
2011-08-04, 00:43:05,VALID,918.181,VALID,0,VALID,95.6205,VALID,0,VALID,19.8588,VALID,119,VALID,0.612109,
2011-08-04, 00:44:05,VALID,918.164,VALID,0,VALID,95.4452,VALID,0,VALID,19.8588,VALID,119,VALID,0.655859,
2011-08-04, 00:45:05,VALID,918.105,VALID,0,VALID,95.2546,VALID,0,VALID,19.8978,VALID,119,VALID,0.673437,
2011-08-04, 00:46:05,VALID,918.099,VALID,0,VALID,95.0183,VALID,0,VALID,19.9563,VALID,119,VALID,0.660937,
2011-08-04, 00:47:05,VALID,918.056,VALID,0,VALID,94.7133,VALID,0,VALID,19.9953,VALID,119,VALID,0.465625,
2011-08-04, 00:48:05,VALID,918.042,VALID,0,VALID,94.4617,VALID,0,VALID,20.0538,VALID,119,VALID,0.145703,
2011-08-04, 00:49:05,VALID,918.015,VALID,0,VALID,94.3398,VALID,0,VALID,20.0928,VALID,119,VALID,0.214844,
2011-08-04, 00:50:05,VALID,917.98,VALID,0,VALID,94.2712,VALID,0,VALID,20.0733,VALID,119,VALID,0.569141,
2011-08-04, 00:51:05,VALID,917.976,VALID,0,VALID,94.3093,VALID,0,VALID,20.0343,VALID,119,VALID,0.698047,
2011-08-04, 00:52:05,VALID,917.961,VALID,0,VALID,94.4922,VALID,0,VALID,19.9953,VALID,119,VALID,0.539844,
2011-08-04, 00:53:05,VALID,917.908,VALID,0,VALID,94.6676,VALID,0,VALID,19.9563,VALID,119,VALID,0.240234,
2011-08-04, 00:54:05,VALID,917.929,VALID,0,VALID,94.7514,VALID,0,VALID,19.9368,VALID,119,VALID,0.28125,
2011-08-04, 00:55:05,VALID,917.902,VALID,0,VALID,94.942,VALID,0,VALID,19.9173,VALID,119,VALID,0.429297,
2011-08-04, 00:56:05,VALID,917.875,VALID,0,VALID,95.0564,VALID,0,VALID,19.8978,VALID,119,VALID,0,
2011-08-04, 00:57:05,VALID,917.857,VALID,0,VALID,95.0792,VALID,0,VALID,19.8783,VALID,119,VALID,0.0378906,
2011-08-04, 00:58:05,VALID,917.843,VALID,0,VALID,95.1402,VALID,0,VALID,19.8783,VALID,119,VALID,0.122266,
2011-08-04, 00:59:05,VALID,917.811,VALID,0,VALID,95.1631,VALID,0,VALID,19.8783,VALID,119,VALID,0.457812,
2011-08-04, 01:00:05,VALID,917.785,VALID,0,VALID,95.1707,VALID,0,VALID,19.8783,VALID,119,VALID,0.227734,
2011-08-04, 01:01:05,VALID,917.8,VALID,0,VALID,95.2241,VALID,0,VALID,19.8588,VALID,119,VALID,0.100781,
2011-08-04, 01:02:05,VALID,917.76,VALID,0,VALID,95.2012,VALID,0,VALID,19.8588,VALID,119,VALID,0,
2011-08-04, 01:03:05,VALID,917.759,VALID,0,VALID,95.2241,VALID,0,VALID,19.8588,VALID,119,VALID,0.24375,
2011-08-04, 01:04:05,VALID,917.731,VALID,0,VALID,95.1707,VALID,0,VALID,19.8588,VALID,119,VALID,0.162109,
2011-08-04, 01:05:05,VALID,917.725,VALID,0,VALID,95.125,VALID,0,VALID,19.8393,VALID,119,VALID,0.663672,
2011-08-04, 01:06:05,VALID,917.71,VALID,0,VALID,94.9649,VALID,0,VALID,19.7808,VALID,119,VALID,0.900781,
2011-08-04, 01:07:05,VALID,917.68,VALID,0,VALID,95.0488,VALID,0,VALID,19.7613,VALID,119,VALID,1.02617,
2011-08-04, 01:08:05,VALID,917.653,VALID,0,VALID,95.1631,VALID,0,VALID,19.7613,VALID,119,VALID,0.973828,
2011-08-04, 01:09:05,VALID,917.679,VALID,0,VALID,95.3079,VALID,0,VALID,19.7418,VALID,119,VALID,0.790234,
2011-08-04, 01:10:05,VALID,917.648,VALID,0,VALID,95.3613,VALID,0,VALID,19.7418,VALID,119,VALID,0.759375,
2011-08-04, 01:11:05,VALID,917.637,VALID,0,VALID,95.3689,VALID,0,VALID,19.7418,VALID,119,VALID,0.46875,
2011-08-04, 01:12:05,VALID,917.648,VALID,0,VALID,95.3994,VALID,0,VALID,19.7418,VALID,119,VALID,0.259766,
2011-08-04, 01:13:05,VALID,917.651,VALID,0,VALID,95.4299,VALID,0,VALID,19.7223,VALID,119,VALID,0.0992187,
2011-08-04, 01:14:05,VALID,917.662,VALID,0,VALID,95.4071,VALID,0,VALID,19.7418,VALID,119,VALID,0.608594,
2011-08-04, 01:15:04,VALID,917.657,VALID,0,VALID,95.3766,VALID,0,VALID,19.7028,VALID,119,VALID,0.596484,
2011-08-04, 01:16:04,VALID,917.663,VALID,0,VALID,95.3613,VALID,0,VALID,19.6833,VALID,119,VALID,0.861328,
2011-08-04, 01:17:04,VALID,917.662,VALID,0,VALID,95.3308,VALID,0,VALID,19.6638,VALID,119,VALID,1.4,
2011-08-04, 01:18:04,VALID,917.611,VALID,0,VALID,95.2927,VALID,0,VALID,19.6248,VALID,119,VALID,1.4332,
2011-08-04, 01:19:04,VALID,917.587,VALID,0,VALID,95.3156,VALID,0,VALID,19.5858,VALID,119,VALID,1.11289,
2011-08-04, 01:20:04,VALID,917.559,VALID,0,VALID,95.3384,VALID,0,VALID,19.5663,VALID,119,VALID,1.08828,
2011-08-04, 01:21:04,VALID,917.522,VALID,0,VALID,95.4375,VALID,0,VALID,19.5063,VALID,119,VALID,1.18281,
2011-08-04, 01:22:04,VALID,917.514,VALID,0,VALID,95.5138,VALID,0,VALID,19.5273,VALID,119,VALID,0.982813,
2011-08-04, 01:23:04,VALID,917.518,VALID,0,VALID,95.6281,VALID,0,VALID,19.5063,VALID,119,VALID,0.888281,
2011-08-04, 01:24:04,VALID,917.477,VALID,0,VALID,95.712,VALID,0,VALID,19.4868,VALID,119,VALID,0.511719,
2011-08-04, 01:25:04,VALID,917.469,VALID,0,VALID,95.7577,VALID,0,VALID,19.4868,VALID,119,VALID,1.1043,
2011-08-04, 01:26:04,VALID,917.456,VALID,0,VALID,95.8568,VALID,0,VALID,19.4658,VALID,119,VALID,1.15977,
2011-08-04, 01:27:04,VALID,917.422,VALID,0,VALID,95.9178,VALID,0,VALID,19.4673,VALID,119,VALID,0.663672,
2011-08-04, 01:28:04,VALID,917.4,VALID,0,VALID,95.9788,VALID,0,VALID,19.4478,VALID,119,VALID,0.623828,
2011-08-04, 01:29:04,VALID,917.408,VALID,0,VALID,96.0093,VALID,0,VALID,19.4478,VALID,119,VALID,0.459766,
2011-08-04, 01:30:04,VALID,917.345,VALID,0,VALID,96.0474,VALID,0,VALID,19.4283,VALID,119,VALID,0.952734,
2011-08-04, 01:31:04,VALID,917.334,VALID,0,VALID,96.1465,VALID,0,VALID,19.4478,VALID,117,VALID,1.22891,
2011-08-04, 01:32:04,VALID,917.337,VALID,0,VALID,96.2151,VALID,0,VALID,19.4688,VALID,127,VALID,1.04766,
2011-08-04, 01:33:04,VALID,917.318,VALID,0,VALID,96.2837,VALID,0,VALID,19.4478,VALID,122,VALID,1.2793,
2011-08-04, 01:34:04,VALID,917.286,VALID,0,VALID,96.36,VALID,0.107441,VALID,19.4673,VALID,135,VALID,0.822266,
2011-08-04, 01:35:04,VALID,917.286,VALID,0,VALID,96.3829,VALID,0,VALID,19.4673,VALID,129,VALID,0.710547,
2011-08-04, 01:36:04,VALID,917.256,VALID,0,VALID,96.4286,VALID,0,VALID,19.4673,VALID,124,VALID,1.90977,
2011-08-04, 01:37:04,VALID,917.22,VALID,0,VALID,96.4591,VALID,0,VALID,19.4868,VALID,112,VALID,1.28203,
2011-08-04, 01:38:04,VALID,917.243,VALID,0,VALID,96.5048,VALID,0,VALID,19.4868,VALID,122,VALID,1.55508,
2011-08-04, 01:39:04,VALID,917.217,VALID,0,VALID,96.5658,VALID,0,VALID,19.5078,VALID,104,VALID,1.49102,
2011-08-04, 01:40:04,VALID,917.21,VALID,0,VALID,96.5734,VALID,0,VALID,19.5273,VALID,105,VALID,1.11445,
2011-08-04, 01:41:04,VALID,917.194,VALID,0,VALID,96.6039,VALID,0,VALID,19.5273,VALID,109,VALID,1.08945,
2011-08-04, 01:42:04,VALID,917.187,VALID,0,VALID,96.6344,VALID,0.107441,VALID,19.5258,VALID,127,VALID,1.38125,
2011-08-04, 01:43:04,VALID,917.16,VALID,0,VALID,96.6573,VALID,0,VALID,19.5453,VALID,137,VALID,0.804688,
2011-08-04, 01:44:04,VALID,917.18,VALID,0,VALID,96.6878,VALID,0,VALID,19.5663,VALID,155,VALID,0.851563,
2011-08-04, 01:45:04,VALID,917.155,VALID,0,VALID,96.6802,VALID,0,VALID,19.5648,VALID,140,VALID,0.964453,
2011-08-04, 01:46:04,VALID,917.179,VALID,0,VALID,96.703,VALID,0,VALID,19.5648,VALID,119,VALID,1.3,
2011-08-04, 01:47:04,VALID,917.155,VALID,0,VALID,96.703,VALID,0,VALID,19.5648,VALID,168,VALID,1.07656,
2011-08-04, 01:48:04,VALID,917.147,VALID,0,VALID,96.6725,VALID,0,VALID,19.5648,VALID,152,VALID,0.874219,
2011-08-04, 01:49:04,VALID,917.137,VALID,0,VALID,96.6649,VALID,0,VALID,19.5648,VALID,162,VALID,1.125,
2011-08-04, 01:50:04,VALID,917.132,VALID,0,VALID,96.6497,VALID,0,VALID,19.5453,VALID,158,VALID,1.15508,
2011-08-04, 01:51:04,VALID,917.113,VALID,0,VALID,96.6573,VALID,0,VALID,19.5468,VALID,160,VALID,1.12188,
2011-08-04, 01:52:04,VALID,917.13,VALID,0,VALID,96.6802,VALID,0,VALID,19.5453,VALID,173,VALID,1.74336,
2011-08-04, 01:53:04,VALID,917.121,VALID,0,VALID,96.6802,VALID,0,VALID,19.5258,VALID,168,VALID,1.52227,
2011-08-04, 01:54:04,VALID,917.11,VALID,0,VALID,96.6954,VALID,0,VALID,19.5453,VALID,158,VALID,1.20664,
2011-08-04, 01:55:04,VALID,917.132,VALID,0,VALID,96.6954,VALID,0,VALID,19.5468,VALID,156,VALID,1.05664,
2011-08-04, 01:56:04,VALID,917.123,VALID,0,VALID,96.7335,VALID,0,VALID,19.5468,VALID,139,VALID,1.28594,
2011-08-04, 01:57:04,VALID,917.124,VALID,0,VALID,96.7259,VALID,0,VALID,19.5258,VALID,132,VALID,1.07656,
2011-08-04, 01:58:04,VALID,917.156,VALID,0,VALID,96.7107,VALID,0,VALID,19.5063,VALID,156,VALID,1.4125,
2011-08-04, 01:59:04,VALID,917.155,VALID,0,VALID,96.7259,VALID,0,VALID,19.5258,VALID,95,VALID,0.885156,
2011-08-04, 02:00:04,VALID,917.178,VALID,0,VALID,96.7335,VALID,0,VALID,19.5468,VALID,101,VALID,0.103125,
2011-08-04, 02:01:04,VALID,917.169,VALID,0,VALID,96.7259,VALID,0,VALID,19.5453,VALID,101,VALID,0.421094,
2011-08-04, 02:02:04,VALID,917.152,VALID,0,VALID,96.7183,VALID,0,VALID,19.5453,VALID,127,VALID,0.286328,
2011-08-04, 02:03:04,VALID,917.143,VALID,0,VALID,96.7183,VALID,0,VALID,19.5663,VALID,127,VALID,0.278516,
2011-08-04, 02:04:04,VALID,917.134,VALID,0,VALID,96.7183,VALID,0,VALID,19.5453,VALID,127,VALID,0.237891,
2011-08-04, 02:05:04,VALID,917.101,VALID,0,VALID,96.7107,VALID,0,VALID,19.5843,VALID,127,VALID,0.416406,
2011-08-04, 02:06:04,VALID,917.109,VALID,0,VALID,96.6954,VALID,0,VALID,19.5648,VALID,127,VALID,0.173438,
2011-08-04, 02:07:04,VALID,917.105,VALID,0,VALID,96.6802,VALID,0,VALID,19.5843,VALID,127,VALID,0.253125,
2011-08-04, 02:08:04,VALID,917.081,VALID,0,VALID,96.6573,VALID,0,VALID,19.5843,VALID,127,VALID,0.619922,
2011-08-04, 02:09:04,VALID,917.086,VALID,0,VALID,96.6649,VALID,0,VALID,19.5648,VALID,127,VALID,1.0375,
2011-08-04, 02:10:04,VALID,917.103,VALID,0,VALID,96.642,VALID,0,VALID,19.5648,VALID,127,VALID,1.08164,
2011-08-04, 02:11:04,VALID,917.082,VALID,0,VALID,96.5963,VALID,0,VALID,19.5648,VALID,127,VALID,0.66875,
2011-08-04, 02:12:04,VALID,917.096,VALID,0,VALID,96.5734,VALID,0,VALID,19.5648,VALID,127,VALID,0.895703,
2011-08-04, 02:13:04,VALID,917.07,VALID,0,VALID,96.5429,VALID,0,VALID,19.5648,VALID,128,VALID,1.0293,
2011-08-04, 02:14:04,VALID,917.097,VALID,0,VALID,96.5506,VALID,0,VALID,19.5648,VALID,185,VALID,1.10664,
2011-08-04, 02:15:04,VALID,917.096,VALID,0,VALID,96.4819,VALID,0,VALID,19.5843,VALID,166,VALID,1.20703,
2011-08-04, 02:16:04,VALID,917.081,VALID,0,VALID,96.4591,VALID,0,VALID,19.6053,VALID,170,VALID,1.09336,
2011-08-04, 02:17:04,VALID,917.087,VALID,0,VALID,96.3905,VALID,0,VALID,19.5843,VALID,170,VALID,0.963672,
2011-08-04, 02:18:04,VALID,917.08,VALID,0,VALID,96.3447,VALID,0.107441,VALID,19.6038,VALID,170,VALID,1.43359,
2011-08-04, 02:19:04,VALID,917.102,VALID,0,VALID,96.3142,VALID,0,VALID,19.6233,VALID,170,VALID,1.19687,
2011-08-04, 02:20:04,VALID,917.124,VALID,0,VALID,96.2685,VALID,0.107441,VALID,19.6248,VALID,183,VALID,0.999609,
2011-08-04, 02:21:04,VALID,917.12,VALID,0,VALID,96.1999,VALID,0,VALID,19.6233,VALID,171,VALID,0.908984,
2011-08-04, 02:22:04,VALID,917.124,VALID,0,VALID,96.1694,VALID,0,VALID,19.6443,VALID,168,VALID,1.08203,
2011-08-04, 02:23:04,VALID,917.091,VALID,0,VALID,96.0855,VALID,0,VALID,19.6038,VALID,162,VALID,1.14492,
2011-08-04, 02:24:04,VALID,917.073,VALID,0,VALID,96.0169,VALID,0,VALID,19.6233,VALID,170,VALID,1.00898,
2011-08-04, 02:25:04,VALID,917.034,VALID,0,VALID,95.9102,VALID,0,VALID,19.6443,VALID,157,VALID,1.24375,
2011-08-04, 02:26:04,VALID,917.026,VALID,0,VALID,95.8263,VALID,0,VALID,19.6428,VALID,166,VALID,1.17734,
2011-08-04, 02:27:04,VALID,916.98,VALID,0,VALID,95.6815,VALID,0,VALID,19.6833,VALID,149,VALID,1.17852,
2011-08-04, 02:28:04,VALID,916.969,VALID,0,VALID,95.5595,VALID,0,VALID,19.6833,VALID,165,VALID,1.19805,
2011-08-04, 02:29:04,VALID,916.985,VALID,0,VALID,95.4452,VALID,0,VALID,19.7013,VALID,165,VALID,0.971484,
2011-08-04, 02:30:04,VALID,916.964,VALID,0,VALID,95.3079,VALID,0,VALID,19.7223,VALID,163,VALID,1.43281,
2011-08-04, 02:31:04,VALID,916.964,VALID,0,VALID,95.2241,VALID,0.107441,VALID,19.7013,VALID,164,VALID,1.48984,
2011-08-04, 02:32:04,VALID,916.938,VALID,0,VALID,95.0869,VALID,0,VALID,19.7223,VALID,163,VALID,0.926953,
2011-08-04, 02:33:04,VALID,916.963,VALID,0,VALID,94.9725,VALID,0,VALID,19.7208,VALID,166,VALID,0.817969,
2011-08-04, 02:34:04,VALID,916.93,VALID,0,VALID,94.8658,VALID,0,VALID,19.7208,VALID,166,VALID,0.900781,
2011-08-04, 02:35:04,VALID,916.903,VALID,0,VALID,94.7362,VALID,0,VALID,19.7418,VALID,148,VALID,0.780469,
2011-08-04, 02:36:04,VALID,916.885,VALID,0,VALID,94.6828,VALID,0,VALID,19.7418,VALID,151,VALID,0.607422,
2011-08-04, 02:37:04,VALID,916.856,VALID,0,VALID,94.6295,VALID,0,VALID,19.7613,VALID,135,VALID,1.01016,
2011-08-04, 02:38:04,VALID,916.873,VALID,0,VALID,94.599,VALID,0,VALID,19.7208,VALID,106,VALID,0.710156,
2011-08-04, 02:39:04,VALID,916.861,VALID,0,VALID,94.6523,VALID,0,VALID,19.7208,VALID,122,VALID,1.04883,
2011-08-04, 02:40:04,VALID,916.828,VALID,0,VALID,94.6981,VALID,0,VALID,19.7223,VALID,86,VALID,1.39297,
2011-08-04, 02:41:04,VALID,916.859,VALID,0,VALID,94.7591,VALID,0,VALID,19.7028,VALID,121,VALID,0.960156,
2011-08-04, 02:42:04,VALID,916.872,VALID,0,VALID,94.8124,VALID,0,VALID,19.7028,VALID,85,VALID,0.818359,
2011-08-04, 02:43:04,VALID,916.903,VALID,0,VALID,94.8582,VALID,0,VALID,19.6833,VALID,85,VALID,1.0625,
2011-08-04, 02:44:04,VALID,916.894,VALID,0,VALID,94.9192,VALID,0,VALID,19.6638,VALID,85,VALID,0.945313,
2011-08-04, 02:45:04,VALID,916.888,VALID,0,VALID,94.9115,VALID,0,VALID,19.6428,VALID,124,VALID,1.15117,
2011-08-04, 02:46:04,VALID,916.875,VALID,0,VALID,94.9268,VALID,0,VALID,19.6638,VALID,130,VALID,0.39375,
2011-08-04, 02:47:04,VALID,916.891,VALID,0,VALID,94.942,VALID,0,VALID,19.6638,VALID,130,VALID,0.855859,
2011-08-04, 02:48:04,VALID,916.871,VALID,0,VALID,94.9268,VALID,0,VALID,19.6833,VALID,130,VALID,0.405469,
2011-08-04, 02:49:04,VALID,916.889,VALID,0,VALID,94.9039,VALID,0,VALID,19.6623,VALID,130,VALID,0.844141,
2011-08-04, 02:50:04,VALID,916.89,VALID,0,VALID,94.8582,VALID,0,VALID,19.6638,VALID,130,VALID,0.607422,
2011-08-04, 02:51:04,VALID,916.875,VALID,0,VALID,94.8505,VALID,0,VALID,19.6428,VALID,130,VALID,0.726563,
2011-08-04, 02:52:04,VALID,916.85,VALID,0,VALID,94.9192,VALID,0,VALID,19.6233,VALID,130,VALID,0.800391,
2011-08-04, 02:53:04,VALID,916.861,VALID,0,VALID,94.9725,VALID,0,VALID,19.6038,VALID,130,VALID,0.693359,
2011-08-04, 02:54:04,VALID,916.863,VALID,0,VALID,95.0411,VALID,0,VALID,19.6053,VALID,130,VALID,1,
2011-08-04, 02:55:04,VALID,916.874,VALID,0,VALID,95.064,VALID,0,VALID,19.6038,VALID,130,VALID,0.570703,
2011-08-04, 02:56:04,VALID,916.88,VALID,0,VALID,95.0792,VALID,0,VALID,19.6248,VALID,130,VALID,0.736328,
2011-08-04, 02:57:04,VALID,916.913,VALID,0,VALID,95.1326,VALID,0,VALID,19.6248,VALID,130,VALID,0.692187,
2011-08-04, 02:58:04,VALID,916.94,VALID,0,VALID,95.0564,VALID,0,VALID,19.6053,VALID,130,VALID,0.651953,
2011-08-04, 02:59:04,VALID,916.97,VALID,0,VALID,95.0259,VALID,0,VALID,19.5858,VALID,130,VALID,0.951172,
2011-08-04, 03:00:04,VALID,916.979,VALID,0,VALID,95.1326,VALID,0,VALID,19.5453,VALID,61,VALID,1.33477,
2011-08-04, 03:01:04,VALID,917.004,VALID,0,VALID,95.1707,VALID,0,VALID,19.5453,VALID,61,VALID,1.7082,
2011-08-04, 03:02:04,VALID,917.003,VALID,0,VALID,95.2317,VALID,0,VALID,19.5258,VALID,61,VALID,1.04336,
2011-08-04, 03:03:04,VALID,917.038,VALID,0,VALID,95.2851,VALID,0.107441,VALID,19.5258,VALID,61,VALID,1.40547,
2011-08-04, 03:04:04,VALID,917.041,VALID,0,VALID,95.3613,VALID,0,VALID,19.5258,VALID,36,VALID,1.04961,
2011-08-04, 03:05:04,VALID,917.026,VALID,0,VALID,95.4223,VALID,0,VALID,19.5258,VALID,50,VALID,1.30195,
2011-08-04, 03:06:04,VALID,917.014,VALID,0,VALID,95.4757,VALID,0,VALID,19.5468,VALID,50,VALID,1.01055,
2011-08-04, 03:07:04,VALID,917.054,VALID,0,VALID,95.4757,VALID,0,VALID,19.5063,VALID,50,VALID,1.02383,
2011-08-04, 03:08:04,VALID,917.081,VALID,0,VALID,95.5367,VALID,0,VALID,19.5468,VALID,50,VALID,1.45195,
2011-08-04, 03:09:04,VALID,917.044,VALID,0,VALID,95.4985,VALID,0.107441,VALID,19.5258,VALID,50,VALID,1.05859,
2011-08-04, 03:10:04,VALID,917.057,VALID,0,VALID,95.5062,VALID,0,VALID,19.5468,VALID,50,VALID,0.858594,
2011-08-04, 03:11:04,VALID,917.079,VALID,0,VALID,95.5671,VALID,0,VALID,19.5453,VALID,50,VALID,1.05039,
2011-08-04, 03:12:04,VALID,917.078,VALID,0,VALID,95.5824,VALID,0,VALID,19.5453,VALID,50,VALID,0.675391,
2011-08-04, 03:13:04,VALID,917.039,VALID,0,VALID,95.5824,VALID,0,VALID,19.5468,VALID,50,VALID,0.572266,
2011-08-04, 03:14:04,VALID,917.05,VALID,0,VALID,95.5976,VALID,0,VALID,19.5663,VALID,50,VALID,0.725,
2011-08-04, 03:15:04,VALID,917.063,VALID,0,VALID,95.6739,VALID,0,VALID,19.5258,VALID,49,VALID,0.376953,
2011-08-04, 03:16:04,VALID,917.042,VALID,0,VALID,95.7196,VALID,0,VALID,19.5273,VALID,49,VALID,0.626172,
2011-08-04, 03:17:04,VALID,917.011,VALID,0,VALID,95.7349,VALID,0,VALID,19.5273,VALID,50,VALID,0.644531,
2011-08-04, 03:18:04,VALID,917.01,VALID,0,VALID,95.834,VALID,0,VALID,19.5063,VALID,50,VALID,0.625,
2011-08-04, 03:19:04,VALID,916.992,VALID,0,VALID,95.9102,VALID,0,VALID,19.5063,VALID,50,VALID,0.348437,
2011-08-04, 03:20:04,VALID,916.973,VALID,0,VALID,95.9788,VALID,0,VALID,19.5078,VALID,50,VALID,0.701563,
2011-08-04, 03:21:04,VALID,916.969,VALID,0,VALID,96.0322,VALID,0,VALID,19.5078,VALID,50,VALID,0.633594,
2011-08-04, 03:22:04,VALID,916.961,VALID,0,VALID,96.1084,VALID,0,VALID,19.5078,VALID,50,VALID,0.321875,
2011-08-04, 03:23:04,VALID,916.99,VALID,0,VALID,96.1541,VALID,0,VALID,19.5078,VALID,49,VALID,0.474609,
2011-08-04, 03:24:04,VALID,917.008,VALID,0,VALID,96.2075,VALID,0,VALID,19.5078,VALID,49,VALID,0.517969,
2011-08-04, 03:25:04,VALID,917.069,VALID,0,VALID,96.2228,VALID,0,VALID,19.4883,VALID,47,VALID,0.661719,
2011-08-04, 03:26:04,VALID,917.06,VALID,0,VALID,96.2609,VALID,0,VALID,19.4688,VALID,47,VALID,0.633594,
2011-08-04, 03:27:04,VALID,917.086,VALID,0,VALID,96.2837,VALID,0,VALID,19.4688,VALID,47,VALID,0.280859,
2011-08-04, 03:28:04,VALID,917.098,VALID,0,VALID,96.3295,VALID,0,VALID,19.4883,VALID,47,VALID,0.161328,
2011-08-04, 03:29:04,VALID,917.131,VALID,0,VALID,96.3524,VALID,0,VALID,19.4688,VALID,47,VALID,0.39375,
2011-08-04, 03:30:04,VALID,917.118,VALID,0,VALID,96.3981,VALID,0,VALID,19.4493,VALID,47,VALID,0.217187,
2011-08-04, 03:31:04,VALID,917.118,VALID,0,VALID,96.3752,VALID,0,VALID,19.4493,VALID,47,VALID,0,
2011-08-04, 03:32:04,VALID,917.126,VALID,0,VALID,96.421,VALID,0,VALID,19.4688,VALID,47,VALID,0.346875,
2011-08-04, 03:33:04,VALID,917.138,VALID,0,VALID,96.4515,VALID,0,VALID,19.4688,VALID,47,VALID,0.346875,
2011-08-04, 03:34:04,VALID,917.109,VALID,0,VALID,96.4591,VALID,0,VALID,19.4478,VALID,47,VALID,0.307422,
2011-08-04, 03:35:04,VALID,917.115,VALID,0,VALID,96.4743,VALID,0,VALID,19.4883,VALID,47,VALID,0.338281,
2011-08-04, 03:36:04,VALID,917.119,VALID,0,VALID,96.4819,VALID,0,VALID,19.4673,VALID,47,VALID,0.426562,
2011-08-04, 03:37:04,VALID,917.092,VALID,0,VALID,96.4896,VALID,0,VALID,19.4883,VALID,47,VALID,0.668359,
2011-08-04, 03:38:04,VALID,917.071,VALID,0,VALID,96.4819,VALID,0,VALID,19.4883,VALID,47,VALID,0.873828,
2011-08-04, 03:39:04,VALID,917.053,VALID,0,VALID,96.4438,VALID,0,VALID,19.4688,VALID,47,VALID,1.06055,
2011-08-04, 03:40:04,VALID,917.039,VALID,0,VALID,96.4667,VALID,0,VALID,19.4493,VALID,47,VALID,0.9875,
2011-08-04, 03:41:04,VALID,917.028,VALID,0,VALID,96.4743,VALID,0,VALID,19.4298,VALID,47,VALID,1.07344,
2011-08-04, 03:42:04,VALID,917.033,VALID,0,VALID,96.4896,VALID,0,VALID,19.4298,VALID,47,VALID,0.789844,
2011-08-04, 03:43:04,VALID,917.038,VALID,0,VALID,96.5048,VALID,0,VALID,19.4493,VALID,48,VALID,0.804297,
2011-08-04, 03:44:04,VALID,917.008,VALID,0,VALID,96.5429,VALID,0,VALID,19.4688,VALID,48,VALID,0.864453,
2011-08-04, 03:45:04,VALID,917.012,VALID,0,VALID,96.5277,VALID,0,VALID,19.4688,VALID,48,VALID,0.847266,